This is the latest recevied weather packets stored in our database for station/object N4JTC. If no packets are shown the sender has not sent any weather packets the latest 10 day(s).
| Time | Temp. | Humidity | Pressure | Rain* | Wind** | Luminosity | Snow |
|---|---|---|---|---|---|---|---|
| 1777554303 | 24.44° C | 86% | 1012.4 hPa | 0 mm | - | 55 W/m² | - |
| 1777554003 | 24.44° C | 86% | 1012.3 hPa | 0 mm | - | 56 W/m² | - |
| 1777553703 | 24.44° C | 86% | 1012.4 hPa | 0 mm | - | 36 W/m² | - |
| 1777553404 | 24.44° C | 86% | 1012.4 hPa | 0 mm | - | 24 W/m² | - |
| 1777553103 | 24.44° C | 86% | 1012.4 hPa | 0 mm | - | 24 W/m² | - |
| 1777552503 | 24.44° C | 87% | 1012.1 hPa | 0 mm | - | 24 W/m² | - |
| 1777552202 | 24.44° C | 87% | 1011.7 hPa | 0 mm | - | 30 W/m² | - |
| 1777551903 | 24.44° C | 87% | 1011.8 hPa | 0 mm | - | 26 W/m² | - |
| 1777551603 | 24.44° C | 88% | 1011.9 hPa | 0 mm | - | 28 W/m² | - |
| 1777551304 | 24.44° C | 88% | 1011.8 hPa | 0 mm | - | 37 W/m² | - |
| 1777550703 | 24.44° C | 90% | 1012 hPa | 0 mm | - | 16 W/m² | - |
| 1777550403 | 24.44° C | 90% | 1012.1 hPa | 0 mm | - | 26 W/m² | - |
| 1777550103 | 24.44° C | 91% | 1011.8 hPa | 0 mm | - | 37 W/m² | - |
| 1777549803 | 24.44° C | 90% | 1011.7 hPa | 0 mm | - | 35 W/m² | - |
| 1777549503 | 24.44° C | 91% | 1011.7 hPa | 0 mm | - | 35 W/m² | - |
| 1777549203 | 23.89° C | 92% | 1012.2 hPa | 0 mm | - | 21 W/m² | - |
| 1777548903 | 24.44° C | 92% | 1011.9 hPa | 0 mm | - | 24 W/m² | - |
| 1777548603 | 23.89° C | 92% | 1011.9 hPa | 0 mm | - | 20 W/m² | - |
| 1777548303 | 24.44° C | 92% | 1012 hPa | 0 mm | - | 27 W/m² | - |
| 1777547703 | 23.89° C | 92% | 1011.8 hPa | 0 mm | - | 8 W/m² | - |
| 1777547403 | 23.89° C | 92% | 1011.7 hPa | 0 mm | - | 3 W/m² | - |
| 1777547103 | 24.44° C | 91% | 1011.7 hPa | 0 mm | - | 0 W/m² | - |
| 1777546803 | 24.44° C | 92% | 1011.7 hPa | 0 mm | - | 0 W/m² | - |
| 1777546503 | 23.89° C | 92% | 1011.6 hPa | 0 mm | - | 0 W/m² | - |
| 1777546202 | 23.89° C | 92% | 1011.9 hPa | 0 mm | - | 0 W/m² | - |
* Rain latest hour (hover to see other rain measurements)
** Current wind speed in m/s (hover to see current wind gust speed)